Voltar ao catálogo

DELTA 1 DEB

AtivoPO
NORAD 23309·DEBRIS·🇺🇸 United States

Lançado Jun 12, 1975 de Vandenberg Space Force Base

Loading…

Próximas Passagens (próximas 24 horas)

TLE

AtualizadoSource: Space-Track

Época: Sep 14, 2026, 02:03 UTC

1 23309U 75052JY  26257.08608394  .00000134  00000-0  60962-3 0  9990
2 23309  99.6770 114.9566 0392566 255.2477 263.0533 12.72552156637264

Acompanhe DELTA 1 DEB em tempo real com AllMySat

Download on the App Store